Location: Ch�tillon
(48.8024°N, 2.2935°E)
Time: 03:43:12
(UTC+00:00)

DIWATA 2B (PO-101) - Pass Details

Date: 27 June 2022
Orbit: 583 x 599 km, 98.0° (Epoch: 13 August)

Event Time Altitude Azimuth Distance (km) Brightness Sun altitude
Exits shadow 01:06:07 12° 141° (SE) 1,795 ? -16.1°
Maximum altitude 01:09:46 45° 70° (ENE) 817 ? -15.9°
Drops below altitude 10° 01:13:49 10° 357° (N) 1,952 ? -15.7°
Sets 01:16:03 0° 352° (N) 2,859 ? -15.6°
